• Em Portugal
  • Lista de países
  • Para 7 dias
  • Temperatura da água
  • Mapas de satélite
  • Mapa do tempo
  • Widgets de tempo
  • user-avatar
    Iniciar Sessão

    Previsão horária em Abovyan

    Hoje, 21 Setembro, Quinta-feira

    Tempo Temperatura Precipitação Vento Pressão Humidade
    00:00 +21°C° 0 mm 1 m/s 673 mmHg 44%
    01:00 +21°C° 0 mm 1 m/s 673 mmHg 45%
    02:00 +21°C° 0 mm 1 m/s 673 mmHg 46%
    03:00 +20°C° 0 mm 2 m/s 673 mmHg 49%
    04:00 +21°C° 0 mm 1 m/s 673 mmHg 48%
    05:00 +20°C° 0 mm 1 m/s 673 mmHg 47%
    06:00 +20°C° 0 mm 1 m/s 673 mmHg 46%
    07:00 +23°C° 0 mm 1 m/s 673 mmHg 39%
    08:00 +25°C° 0 mm 1 m/s 674 mmHg 32%
    09:00 +28°C° 0 mm 2 m/s 674 mmHg 25%
    10:00 +29°C° 0 mm 2 m/s 674 mmHg 23%
    11:00 +31°C° 0 mm 2 m/s 674 mmHg 22%
    12:00 +32°C° 0 mm 2 m/s 674 mmHg 20%
    13:00 +33°C° 0 mm 3 m/s 673 mmHg 20%
    14:00 +33°C° 0 mm 3 m/s 673 mmHg 20%
    15:00 +33°C° 0 mm 3 m/s 672 mmHg 19%
    16:00 +31°C° 0 mm 2 m/s 672 mmHg 23%
    17:00 +29°C° 0 mm 2 m/s 672 mmHg 26%
    18:00 +27°C° 0 mm 2 m/s 671 mmHg 30%
    19:00 +26°C° 0 mm 2 m/s 672 mmHg 33%
    20:00 +25°C° 0 mm 2 m/s 672 mmHg 37%
    21:00 +24°C° 0 mm 2 m/s 672 mmHg 40%
    22:00 +24°C° 0 mm 2 m/s 672 mmHg 44%
    23:00 +23°C° 0 mm 2 m/s 672 mmHg 47%

    Amanhã, 22 Setembro, Sexta-feira

    Tempo Temperatura Precipitação Vento Pressão Humidade
    00:00 +21°C° 0 mm 2 m/s 672 mmHg 51%
    01:00 +21°C° 0 mm 2 m/s 672 mmHg 53%
    02:00 +20°C° 0 mm 2 m/s 671 mmHg 56%
    03:00 +20°C° 0 mm 2 m/s 671 mmHg 58%
    04:00 +19°C° 0 mm 2 m/s 671 mmHg 58%
    05:00 +20°C° 0 mm 1 m/s 671 mmHg 59%
    06:00 +20°C° 0 mm 1 m/s 671 mmHg 59%
    07:00 +22°C° 0 mm 1 m/s 671 mmHg 49%
    08:00 +25°C° 0 mm 2 m/s 672 mmHg 38%
    09:00 +28°C° 0 mm 2 m/s 672 mmHg 28%
    10:00 +29°C° 0 mm 2 m/s 672 mmHg 25%
    11:00 +30°C° 0 mm 2 m/s 672 mmHg 22%
    12:00 +31°C° 0 mm 3 m/s 672 mmHg 20%
    13:00 +31°C° 0 mm 3 m/s 671 mmHg 19%
    14:00 +33°C° 0 mm 3 m/s 671 mmHg 19%
    15:00 +32°C° 0 mm 2 m/s 671 mmHg 19%
    16:00 +30°C° 0,2 mm 2 m/s 670 mmHg 24%
    17:00 +28°C° 0,2 mm 2 m/s 670 mmHg 28%
    18:00 +26°C° 0,2 mm 1 m/s 670 mmHg 33%
    19:00 +25°C° 0,1 mm 2 m/s 670 mmHg 38%
    20:00 +24°C° 0,1 mm 2 m/s 670 mmHg 44%
    21:00 +23°C° 0,1 mm 2 m/s 671 mmHg 49%
    22:00 +21°C° 0,1 mm 2 m/s 671 mmHg 54%
    23:00 +21°C° 0,1 mm 2 m/s 671 mmHg 58%

    Depois de amanhã, 23 Setembro, Sábado

    Tempo Temperatura Precipitação Vento Pressão Humidade
    00:00 +20°C° 0,1 mm 2 m/s 671 mmHg 63%
    01:00 +19°C° 0 mm 2 m/s 671 mmHg 64%
    02:00 +19°C° 0 mm 2 m/s 671 mmHg 65%
    03:00 +18°C° 0 mm 2 m/s 671 mmHg 66%
    04:00 +18°C° 0 mm 2 m/s 671 mmHg 66%
    05:00 +18°C° 0 mm 2 m/s 671 mmHg 66%
    06:00 +18°C° 0 mm 1 m/s 671 mmHg 66%
    07:00 +21°C° 0 mm 1 m/s 672 mmHg 57%
    08:00 +23°C° 0 mm 1 m/s 672 mmHg 48%
    09:00 +25°C° 0 mm 1 m/s 673 mmHg 40%
    10:00 +27°C° 0 mm 2 m/s 673 mmHg 36%
    11:00 +28°C° 0 mm 2 m/s 673 mmHg 32%
    12:00 +29°C° 0 mm 2 m/s 672 mmHg 28%
    13:00 +29°C° 0,1 mm 3 m/s 672 mmHg 27%
    14:00 +30°C° 0,1 mm 3 m/s 672 mmHg 26%
    15:00 +30°C° 0,1 mm 3 m/s 672 mmHg 26%
    16:00 +28°C° 0,3 mm 2 m/s 671 mmHg 31%
    17:00 +26°C° 0,3 mm 2 m/s 671 mmHg 36%
    18:00 +23°C° 0,3 mm 1 m/s 671 mmHg 41%
    19:00 +23°C° 0,3 mm 2 m/s 672 mmHg 47%
    20:00 +21°C° 0,3 mm 2 m/s 672 mmHg 52%
    21:00 +20°C° 0,3 mm 2 m/s 673 mmHg 57%
    22:00 +20°C° 0,1 mm 2 m/s 673 mmHg 60%
    23:00 +19°C° 0,1 mm 2 m/s 673 mmHg 64%

    24 Setembro, Domingo

    Tempo Temperatura Precipitação Vento Pressão Humidade
    00:00 +19°C° 0,1 mm 3 m/s 673 mmHg 67%
    01:00 +18°C° 0 mm 2 m/s 673 mmHg 69%
    02:00 +18°C° 0 mm 2 m/s 673 mmHg 71%
    03:00 +17°C° 0 mm 2 m/s 673 mmHg 73%
    04:00 +17°C° 0 mm 2 m/s 673 mmHg 74%
    05:00 +16°C° 0 mm 2 m/s 673 mmHg 74%
    06:00 +16°C° 0 mm 2 m/s 673 mmHg 75%
    07:00 +18°C° 0 mm 2 m/s 674 mmHg 65%
    08:00 +20°C° 0 mm 2 m/s 674 mmHg 56%
    09:00 +23°C° 0 mm 1 m/s 675 mmHg 46%
    10:00 +25°C° 0 mm 1 m/s 675 mmHg 41%
    11:00 +26°C° 0 mm 2 m/s 674 mmHg 35%
    12:00 +27°C° 0 mm 2 m/s 674 mmHg 30%
    13:00 +28°C° 0 mm 2 m/s 674 mmHg 28%
    14:00 +28°C° 0 mm 2 m/s 674 mmHg 27%
    15:00 +28°C° 0 mm 2 m/s 674 mmHg 26%
    16:00 +26°C° 0 mm 2 m/s 673 mmHg 31%
    17:00 +24°C° 0 mm 1 m/s 673 mmHg 36%
    18:00 +22°C° 0 mm 1 m/s 673 mmHg 41%
    19:00 +22°C° 0 mm 1 m/s 673 mmHg 47%
    20:00 +20°C° 0 mm 2 m/s 674 mmHg 53%
    21:00 +19°C° 0 mm 2 m/s 674 mmHg 59%
    22:00 +19°C° 0,1 mm 2 m/s 674 mmHg 61%
    23:00 +18°C° 0,1 mm 2 m/s 674 mmHg 64%

    25 Setembro, Segunda-feira

    Tempo Temperatura Precipitação Vento Pressão Humidade
    00:00 +17°C° 0,1 mm 2 m/s 674 mmHg 66%
    01:00 +17°C° 0 mm 2 m/s 674 mmHg 67%
    02:00 +17°C° 0 mm 2 m/s 674 mmHg 67%
    03:00 +16°C° 0 mm 2 m/s 673 mmHg 67%
    04:00 +16°C° 0 mm 2 m/s 673 mmHg 68%
    05:00 +15°C° 0 mm 1 m/s 673 mmHg 70%
    06:00 +15°C° 0 mm 1 m/s 673 mmHg 71%
    07:00 +19°C° 0 mm 1 m/s 674 mmHg 61%
    08:00 +21°C° 0 mm 1 m/s 674 mmHg 51%
    09:00 +23°C° 0 mm 1 m/s 675 mmHg 42%
    10:00 +25°C° 0 mm 1 m/s 675 mmHg 37%
    11:00 +26°C° 0 mm 2 m/s 674 mmHg 33%
    12:00 +27°C° 0 mm 2 m/s 674 mmHg 28%
    13:00 +28°C° 0 mm 2 m/s 674 mmHg 27%
    14:00 +28°C° 0 mm 2 m/s 673 mmHg 25%
    15:00 +28°C° 0 mm 2 m/s 673 mmHg 23%
    16:00 +26°C° 0 mm 2 m/s 673 mmHg 28%
    17:00 +24°C° 0 mm 1 m/s 672 mmHg 32%
    18:00 +22°C° 0 mm 1 m/s 672 mmHg 36%
    19:00 +21°C° 0 mm 1 m/s 672 mmHg 42%
    20:00 +20°C° 0 mm 2 m/s 673 mmHg 47%
    21:00 +19°C° 0 mm 2 m/s 673 mmHg 53%
    22:00 +19°C° 0 mm 2 m/s 673 mmHg 57%
    23:00 +18°C° 0 mm 2 m/s 673 mmHg 62%

    26 Setembro, Terça-feira

    Tempo Temperatura Precipitação Vento Pressão Humidade
    00:00 +17°C° 0 mm 2 m/s 673 mmHg 66%
    01:00 +17°C° 0 mm 2 m/s 672 mmHg 68%
    02:00 +17°C° 0 mm 2 m/s 672 mmHg 70%
    03:00 +16°C° 0 mm 2 m/s 672 mmHg 71%
    04:00 +16°C° 0 mm 1 m/s 672 mmHg 71%
    05:00 +16°C° 0 mm 1 m/s 672 mmHg 71%
    06:00 +15°C° 0 mm 1 m/s 672 mmHg 70%
    07:00 +19°C° 0 mm 1 m/s 672 mmHg 58%
    08:00 +20°C° 0 mm 2 m/s 673 mmHg 46%
    09:00 +24°C° 0 mm 2 m/s 673 mmHg 34%
    10:00 +25°C° 0 mm 2 m/s 673 mmHg 31%
    11:00 +27°C° 0 mm 3 m/s 673 mmHg 28%
    12:00 +28°C° 0 mm 3 m/s 673 mmHg 24%
    13:00 +29°C° 0,1 mm 3 m/s 672 mmHg 24%
    14:00 +29°C° 0,1 mm 3 m/s 672 mmHg 25%
    15:00 +29°C° 0,1 mm 3 m/s 671 mmHg 25%
    16:00 +27°C° 0,3 mm 3 m/s 671 mmHg 32%
    17:00 +25°C° 0,3 mm 2 m/s 671 mmHg 38%
    18:00 +21°C° 0,3 mm 2 m/s 670 mmHg 44%
    19:00 +21°C° 0,2 mm 2 m/s 670 mmHg 49%
    20:00 +20°C° 0,2 mm 2 m/s 671 mmHg 54%
    21:00 +19°C° 0,2 mm 2 m/s 671 mmHg 58%
    22:00 +19°C° 0 mm 2 m/s 671 mmHg 61%
    23:00 +18°C° 0 mm 2 m/s 671 mmHg 64%
    Mostrar mais